EW3145 Weather Reports


Display with metric or nautical units.
time (UTC)temp
F
wind
direction
speed
MPH
gust
MPH
rain 1hr
in
rain 24hr
in
rain mn
in
humidity
%
barometer
mb
20191023104659 53 309 0.0 0.0 0.00 0.00 0.00 97 1006.6
20191023103142 53 319 0.0 0.0 0.00 0.00 0.00 97 1005.9
20191023101705 53 302 0.0 0.0 0.00 0.00 0.00 97 1006.4
20191023100321 54 314 0.0 7.0 0.00 0.00 0.00 98 1006.1
20191023094659 54 321 0.0 0.0 0.00 0.00 0.00 98 1006.1
20191023093108 54 303 0.0 0.0 0.00 0.00 0.00 98 1005.7
20191023091619 54 304 0.0 0.0 0.00 0.00 0.00 98 1005.8
20191023090214 54 303 0.0 0.0 0.00 0.00 0.00 98 1005.8
20191023084603 54 304 0.0 0.0 0.00 0.00 0.00 98 1006.0
20191023083057 54 303 0.0 0.0 0.00 0.00 0.00 98 1006.2
20191023081644 54 303 0.0 0.0 0.00 0.00 0.00 98 1006.5
20191023080107 54 303 0.0 0.0 0.00 0.00 0.00 98 1006.7
20191023074640 54 303 0.0 0.0 0.00 0.00 0.00 98 1007.0
20191023073057 53 303 0.0 0.0 0.00 0.00 0.00 97 1007.2
20191023071559 53 303 0.0 0.0 0.00 0.00 0.00 97 1007.6
20191023070056 53 304 0.0 0.0 0.00 0.00 0.00 97 1007.9
20191023064617 53 303 0.0 0.0 0.00 0.00 0.00 97 1008.2
20191023063044 53 303 0.0 0.0 0.00 0.00 0.00 97 1008.4
20191023061541 53 30 0.0 0.0 0.00 0.00 0.00 97 1008.5
20191023060026 53 30 0.0 0.0 0.00 0.00 0.00 97 1008.6
20191023054548 53 30 0.0 0.0 0.00 0.00 0.00 97 1008.9
20191023053022 53 72 0.0 0.0 0.00 0.00 0.00 97 1009.1
20191023051520 53 84 0.0 0.0 0.00 0.00 0.00 97 1009.6
20191023050015 53 84 0.0 0.0 0.00 0.00 0.00 97 1009.9
20191023044511 53 34 0.0 0.0 0.00 0.00 0.00 97 1010.2
20191023043005 53 34 0.0 0.0 0.00 0.00 0.00 97 1010.5
20191023041502 53 34 0.0 0.0 0.00 0.00 0.00 97 1010.8
20191023040145 53 34 0.0 0.0 0.00 0.00 0.00 97 1011.2
20191023034801 53 34 0.0 0.0 0.00 0.00 0.00 97 1011.1
20191023031737 53 46 0.0 0.0 0.00 0.00 0.00 97 1012.4
20191023030141 53 43 0.0 0.0 0.00 0.00 0.00 97 1012.1
20191023024646 53 83 0.0 0.0 0.00 0.00 0.00 97 1012.3
20191023023252 53 83 0.0 0.0 0.00 0.00 0.00 97 1012.6
20191023021739 53 55 0.0 0.0 0.00 0.00 0.00 96 1012.8
20191023020110 53 76 0.0 0.0 0.00 0.00 0.00 96 1012.9
20191023014703 53 73 0.0 0.0 0.00 0.00 0.00 96 1013.2
20191023013147 53 65 0.0 0.0 0.00 0.00 0.00 96 1013.2
20191023011648 53 57 0.0 0.0 0.00 0.00 0.00 96 1013.4
20191023010136 52 54 0.0 0.0 0.00 0.00 0.00 96 1013.5
20191023004554 52 81 0.0 0.0 0.00 0.00 0.00 96 1013.9
20191023003200 52 41 0.0 0.0 0.00 0.00 0.00 96 1014.0
20191023001616 52 63 0.0 0.0 0.00 0.00 0.00 96 1014.6
20191023000101 52 84 0.0 0.0 0.00 0.00 0.00 95 1014.5
20191022234605 52 80 0.0 0.0 0.00 0.00 0.00 95 1014.5
20191022233107 52 71 0.0 0.0 0.00 0.00 0.00 95 1014.9
20191022231638 52 64 0.0 0.0 0.00 0.00 0.00 94 1015.6
20191022230137 52 62 0.0 0.0 0.00 0.00 0.00 93 1015.7
20191022224613 52 165 0.0 4.0 0.00 0.00 0.00 92 1015.3
20191022223118 53 65 0.0 3.0 0.00 0.00 0.00 89 1015.6
20191022221601 54 111 0.0 0.0 0.00 0.00 0.00 87 1016.0
20191022220123 54 76 0.0 0.0 0.00 0.00 0.00 86 1015.7
20191022214543 54 81 0.0 0.0 0.00 0.00 0.00 85 1015.8
20191022213134 54 67 0.0 3.0 0.00 0.00 0.00 86 1015.3
20191022211547 54 39 0.0 10.0 0.00 0.00 0.00 86 1016.1
20191022210038 54 57 0.0 0.0 0.00 0.00 0.00 85 1016.1
20191022204559 54 90 0.0 3.0 0.00 0.00 0.00 84 1015.7
20191022203048 55 100 0.0 6.0 0.00 0.00 0.00 83 1015.7
20191022201557 55 55 0.0 3.0 0.00 0.00 0.00 82 1015.5
20191022200046 55 69 0.0 1.0 0.00 0.00 0.00 81 1016.0
20191022194540 56 63 0.0 7.0 0.00 0.00 0.00 79 1015.8
20191022193023 56 57 0.0 0.0 0.00 0.00 0.00 79 1016.6
20191022191538 57 123 0.0 6.0 0.00 0.00 0.00 78 1016.5
20191022190037 57 105 0.0 0.0 0.00 0.00 0.00 78 1016.8
20191022184538 58 65 0.0 0.0 0.00 0.00 0.00 76 1017.0
20191022183008 58 46 0.0 3.0 0.00 0.00 0.00 75 1017.0
20191022181524 58 64 0.0 2.0 0.00 0.00 0.00 75 1017.2
20191022180005 58 48 0.0 0.0 0.00 0.00 0.00 76 1017.6
20191022174508 58 41 0.0 0.0 0.00 0.00 0.00 75 1017.6
20191022173222 58 60 0.0 0.0 0.00 0.00 0.00 75 1017.8
20191022171707 58 56 0.0 0.0 0.00 0.00 0.00 75 1018.2
20191022170138 58 46 0.0 0.0 0.00 0.00 0.00 75 1018.1
20191022164618 57 95 0.0 7.0 0.00 0.00 0.00 77 1018.3
20191022163150 57 54 0.0 0.0 0.00 0.00 0.00 78 1018.3
20191022161609 57 74 0.0 0.0 0.00 0.00 0.00 76 1018.6
20191022160119 56 80 0.0 0.0 0.00 0.00 0.00 79 1018.7
20191022154557 55 102 0.0 0.0 0.00 0.00 0.00 80 1018.7
20191022153054 55 38 0.0 0.0 0.00 0.00 0.00 81 1018.8
20191022151614 54 46 0.0 0.0 0.00 0.00 0.00 83 1018.7
20191022150101 53 76 0.0 0.0 0.00 0.00 0.00 84 1019.2
20191022144611 52 80 0.0 0.0 0.00 0.00 0.00 85 1019.1
20191022143118 52 153 0.0 0.0 0.00 0.00 0.00 83 1018.7
20191022141620 50 66 0.0 0.0 0.00 0.00 0.00 87 1019.2
20191022140115 49 47 0.0 0.0 0.00 0.00 0.00 88 1019.6
20191022134544 47 306 0.0 0.0 0.00 0.00 0.00 92 1019.9
20191022133029 46 306 0.0 0.0 0.00 0.00 0.00 93 1020.4
20191022131523 45 284 0.0 0.0 0.00 0.00 0.00 95 1020.6
20191022130014 44 319 0.0 0.0 0.00 0.00 0.00 95 1020.1
20191022124535 44 323 0.0 0.0 0.00 0.00 0.00 95 1020.4
20191022123006 43 323 0.0 0.0 0.00 0.00 0.00 96 1020.3
20191022121509 43 304 0.0 0.0 0.00 0.00 0.00 96 1020.0
20191022120003 42 304 0.0 0.0 0.00 0.00 0.00 96 1019.8
20191022114501 42 304 0.0 0.0 0.00 0.00 0.00 95 1019.6
20191022113000 42 304 0.0 0.0 0.00 0.00 0.00 95 1019.1
20191022111644 42 313 0.0 0.0 0.00 0.00 0.00 95 1019.2
20191022110148 42 313 0.0 0.0 0.00 0.00 0.00 95 1019.7